STARLINK-33793 (64165 NORAD) Tracking and Keplerian Element Data

This shows tracking and keplerian element data for the satellite.

Feedback or suggestion? Click here.




ElementValue
Catalog64165
NameSTARLINK-33793
Epoch Orbit3133
Epoch Day354.10718714
Epoch Year2025
RAAN43.0782
Inclination97.6021
Eccentricity5.58E-05
Argument of Perigee86.667
Mean Anonmoly273.462
Mean Motion15.05669422
Decay Rate0.000139
L11 64165U 25112V 25354.10718714 .00013900 00000+0 96520-3 0 9998
L22 64165 97.6021 43.0782 0000558 86.6670 273.4620 15.05669422 31338



Live tracking and technical data element details for STARLINK-33793 (NORAD 64165). STARLINK-33793 can be tracked NOW for your location showing map with azimuth and elevation plus other details from your city location.







IsCatalogInMostPopularTable: catalog: 64165, numindb: 8
Update: records affected: 1



GetName: 64165 STARLINK-33793

Hit Count: updated at: Tue, 21 Apr 2026 20:27:02 GMT